Location: Aulagny
(45.1643°N, 4.3096°E)
Time: 12:05:57
(UTC+00:00)

STARLINK-52 - Pass Details

Date: 21 October 2019
Orbit: 443 x 445 km, 53.0° (Epoch: 11 November)

Event Time Altitude Azimuth Distance (km) Brightness Sun altitude
Rises 18:36:53 0° 302° (WNW) 2,440 8.0 -19.9°
Reaches altitude 10° 18:39:01 10° 301° (WNW) 1,567 6.9 -20.2°
Maximum altitude 18:42:33 80° 214° (SSW) 455 3.1 -20.8°
Enters shadow 18:42:35 80° 203° (SSW) 456 3.1 -20.9°
